Hourly Data Report for May 21, 2004

TORONTO CITY
ONTARIO

43°40'00.000" N
79°24'00.000" W
112.50 m
6158355
71508
XTO

Download Data

Hourly Data (May 2004)
Hourly Data Report for May 21, 2004
TIME
LST
Temp Definition
°C
Dew Point Definition
°C
Rel Hum Definition
%
Precip. Amount Definition
mm

Wind Dir Definition
10's deg

Wind Spd Definition
km/h
Visibility Definition
km
Stn Press Definition
kPa
Hmdx Definition


Wind Chill Definition


Weather Definition


00:00 19.3 17.7 90   LegendMM LegendMM LegendMM 100.26     LegendNANA
01:00 19.5 17.8 90   LegendMM LegendMM LegendMM 100.22     LegendNANA
02:00 19.7 17.6 88   LegendMM LegendMM LegendMM 100.29     LegendNANA
03:00 18.9 15.8 82   LegendMM LegendMM LegendMM 100.33     LegendNANA
04:00 17.1 13.2 78   LegendMM LegendMM LegendMM 100.29     LegendNANA
05:00 16.1 13.0 82   LegendMM LegendMM LegendMM 100.49     LegendNANA
06:00 15.6 13.4 87   LegendMM LegendMM LegendMM 100.53     LegendNANA
07:00 16.2 13.9 86   LegendMM LegendMM LegendMM 100.54     LegendNANA
08:00 17.4 14.4 83   LegendMM LegendMM LegendMM 100.65     LegendNANA
09:00 17.8 14.5 81   LegendMM LegendMM LegendMM 100.67     LegendNANA
10:00 17.0 12.4 74   LegendMM LegendMM LegendMM 100.76     LegendNANA
11:00 18.1 13.1 73   LegendMM LegendMM LegendMM 100.72     LegendNANA
12:00 17.8 12.9 73   LegendMM LegendMM LegendMM 100.71     LegendNANA
13:00 18.5 13.2 71   LegendMM LegendMM LegendMM 100.65     LegendNANA
14:00 17.2 12.0 71   LegendMM LegendMM LegendMM 100.68     LegendNANA
15:00 16.0 12.0 77   LegendMM LegendMM LegendMM 100.61     LegendNANA
16:00 15.0 11.6 80   LegendMM LegendMM LegendMM 100.54     LegendNANA
17:00 14.5 11.0 79   LegendMM LegendMM LegendMM 100.35     LegendNANA
18:00 13.9 10.7 81   LegendMM LegendMM LegendMM 100.25     LegendNANA
19:00 13.8 11.2 84   LegendMM LegendMM LegendMM 100.27     LegendNANA
20:00 14.5 11.8 84   LegendMM LegendMM LegendMM 100.23     LegendNANA
21:00 13.6 11.1 85   LegendMM LegendMM LegendMM 100.24     LegendNANA
22:00 13.6 11.0 84   LegendMM LegendMM LegendMM 100.19     LegendNANA
23:00 14.1 10.2 77   LegendMM LegendMM LegendMM 100.26     LegendNANA

Notes on Data Quality.

Legend

  • E = Estimated
  • M = Missing
  • NA = Not Available*
  • [empty] = Indicates an unobserved value
Date modified: